Flag for Germany Weather past 2 weeks in Mülheim, North Rhine-Westphalia, Germany

Now
34 °F

Light snow. Partly sunny.


Feels Like: 28 °F
Forecast: 32 / 38 °F
Wind: 7 mph from Southwest

Location: Koeln / Bonn

Current Time: Feb 1, 2015 at 11:58:57 AM

Latest Report: Feb 1, 2015 at 11:20 AM


Visibility: 3 mi

Pressure: 29.24 "Hg

Humidity: 87%

Dew point: 30 °F

Location of MülheimLocation

Historic Weather in Mülheim — Graph

°F

Mülheim temperature yesterday

Maximum temperature yesterday: 45 °F (at 1:50 PM)
Minimum temperature yesterday: 30 °F (at 9:50 PM)
Average temperature yesterday: 36 °F

Past Weeks' High & Low Weather Summary

 TemperatureHumidityPressure
High45 °F (Jan 29, 1:50 PM)100% (Jan 20, 4:20 AM)30.42 "Hg (Jan 20, 4:20 AM)
Low27 °F (Jan 19, 7:20 AM)57% (Jan 29, 1:50 PM)28.71 "Hg (Jan 30, 12:50 AM)
Average35 °F85%29.81 "Hg
* Reported Jan 17 10:20 AM — Feb 1 10:50 AM, Mülheim, Weather by CustomWeather, © 2014

Note: Actual official high and low records may vary slightly from our data, if they occured in-between our weather recording intervals... More about our weather records

Advertising

Mülheim weather history for previous 24 hours

 ConditionsComfort  
Time TempWeatherWind HumidityBarometerVisibility
10:50 AM
Feb 1
34 °FLight snow. Partly sunny.6 mph87%29.24 "HgN/A
10:20 AM34 °FPartly sunny.7 mph87%29.21 "HgN/A
9:50 AM34 °FPartly sunny.7 mph87%29.21 "HgN/A
9:20 AM32 °FPartly sunny.7 mph87%29.21 "HgN/A
8:50 AM32 °FPartly sunny.7 mph87%29.21 "HgN/A
8:20 AM32 °FPartly sunny.6 mph87%29.21 "HgN/A
7:50 AM32 °FPassing clouds.6 mph87%29.18 "HgN/A
7:20 AM32 °FPassing clouds.6 mph87%29.18 "HgN/A
6:50 AM32 °FPassing clouds.6 mph87%29.18 "HgN/A
6:20 AM30 °FPassing clouds.5 mph93%29.18 "HgN/A
5:50 AM32 °FPartly cloudy.5 mph87%29.15 "HgN/A
5:20 AM30 °FPartly cloudy.1 mph93%29.15 "HgN/A
4:50 AM30 °FPassing clouds.3 mph93%29.15 "HgN/A
4:20 AM30 °FPartly cloudy.3 mph93%29.15 "HgN/A
3:50 AM30 °FPartly cloudy.5 mph93%29.15 "HgN/A
3:20 AM30 °FPassing clouds.3 mph93%29.15 "HgN/A
2:50 AM30 °FPassing clouds.6 mph93%29.15 "HgN/A
2:20 AM32 °FPartly cloudy.5 mph87%29.15 "HgN/A
1:50 AM30 °FFog.2 mph93%29.15 "HgN/A
1:20 AM32 °FPassing clouds.2 mph87%29.15 "HgN/A
12:50 AM32 °FPartly cloudy.2 mph87%29.12 "HgN/A
12:20 AM32 °FPartly cloudy.1 mph87%29.12 "HgN/A
11:50 PM
Jan 31
30 °FPartly cloudy.1 mph86%29.12 "HgN/A
11:20 PM30 °FPassing clouds.1 mph86%29.12 "HgN/A
10:50 PM30 °FClear.2 mph86%29.12 "Hg10 mi
10:20 PM32 °FClear.2 mph87%29.12 "Hg10 mi
9:50 PM30 °FClear.2 mph93%29.12 "Hg10 mi
9:20 PM32 °FPassing clouds.3 mph87%29.12 "HgN/A
8:50 PM32 °FPassing clouds.5 mph80%29.12 "HgN/A
8:20 PM34 °FPassing clouds.6 mph81%29.09 "HgN/A
7:50 PM34 °FPassing clouds.6 mph81%29.09 "HgN/A
7:20 PM34 °FPassing clouds.3 mph81%29.09 "HgN/A
6:50 PM36 °FPassing clouds.3 mph75%29.09 "HgN/A
6:20 PM36 °FPassing clouds.3 mph75%29.06 "HgN/A
5:50 PM36 °FPassing clouds.3 mph75%29.06 "HgN/A
5:20 PM37 °FPassing clouds.2 mph75%29.06 "HgN/A
4:20 PM39 °FSnow flurries. Scattered clouds.7 mph70%29.03 "HgN/A
3:50 PM41 °FScattered clouds.10 mph61%29.03 "HgN/A
3:20 PM41 °FScattered clouds.10 mph66%29.03 "HgN/A
2:50 PM41 °FScattered clouds.12 mph61%29.00 "HgN/A
2:20 PM41 °FScattered clouds.13 mph61%29.00 "HgN/A
1:50 PM45 °FScattered clouds.12 mph61%29.00 "HgN/A
1:20 PM43 °FScattered clouds.10 mph61%29.00 "HgN/A
12:50 PM43 °FScattered clouds.12 mph66%29.00 "HgN/A
12:20 PM41 °FScattered clouds.10 mph70%29.00 "HgN/A
11:50 AM39 °FScattered clouds.10 mph70%29.00 "HgN/A
11:20 AM39 °FScattered clouds.9 mph75%29.00 "HgN/A
Weather by CustomWeather, © 2014

See weather overviewHow to use our weather pages